Voltar ao catálogo

STARLINK-3511

AtivoComunicaçõesVLEO
NORAD 51752·PAYLOAD·🇺🇸 United States

Lançado Feb 21, 2022 de Cape Canaveral Space Force Station

Loading…

Próximas Passagens (próximas 24 horas)

TLE

AtualizadoSource: CelesTrak SupGP

Época: Sep 14, 2026, 20:32 UTC

1 51752C 22016AQ  26257.85604167 -.00027589  00000+0 -88704-3 0  2579
2 51752  53.1581 165.0282 0001368  93.3479 271.1334 15.31720523    13

Acompanhe STARLINK-3511 em tempo real com AllMySat

Download on the App Store